Regional Weather Roundup
Issued by NWS

Home | Current Version | Previous Version | Graphics & Text | Print | Product List | Glossary On
Versions: 1 2 3 4 5 6 7 8 9 10 11 12 13 14 15 16 17 18 19 20 21 22 23 24 25 26 27 28 29 30 31 32 33 34 35 36 37 38 39 40 41 42 43 44 45 46 47 48 49 50
000
ASUS43 KDMX 260506
RWRIA

WEATHER ROUNDUP FOR IOWA
NATIONAL WEATHER SERVICE DES MOINES IA
1200 AM CDT WED JUL 26 2017

NOTE: "FAIR" INDICATES FEW OR NO CLOUDS BELOW 12,000 FEET WITH NO
SIGNIFICANT WEATHER AND/OR OBSTRUCTIONS TO VISIBILITY.

* - THESE STATIONS ARE NOT NWS STATIONS...THUS NOT UNDER NWS
QUALITY CONTROL.  THEY ALSO DO NOT REPORT WEATHER SUCH
AS PRECIPITATION OR FOG.

IAZ001>003-012>014-020>022-031>034-043>046-260600-
   NORTHWEST IOWA

CITY           SKY/WX    TMP DP  RH WIND       PRES   REMARKS
CARROLL *      CLOUDY    79  75  89 S8        30.02R HX  82
DENISON *      CLOUDY    79  73  83 S10       30.02R HX  82
ORANGE CITY *  CLOUDY    81  73  78 S8        29.97F HX  85
SHELDON *      CLOUDY    81  73  78 SE9       29.97F HX  85
SIOUX CITY     CLOUDY    81  74  79 SE8       29.95F HX  86
SPENCER        CLOUDY    79  73  82 SE6       30.00S HX  82
STORM LAKE *   CLOUDY    79  73  83 S12       30.01F HX  82
$$

IAZ055>058-069>071-079>083-090>094-260600-
   SOUTHWEST IOWA

CITY           SKY/WX    TMP DP  RH WIND       PRES   REMARKS
ATLANTIC *     CLOUDY    81  75  83 S9        30.02R HX  86
AUDUBON *      CLOUDY    79  75  89 S7        30.04S HX  82
CLARINDA *       N/A     81  77  89 S7        30.05R HX  88
COUNCIL BLFS * CLOUDY    81  79  94 SE14      29.99F HX  89
CRESTON *      CLOUDY    77  73  88 SE9       30.07S
HARLAN  *      CLOUDY    79  75  89 S9        30.05S HX  82
LAMONI         PTCLDY    78  73  84 S7        30.06R HX  81
RED OAK *      CLOUDY    81  75  83 S7        30.02S HX  86
SHENANDOAH *   CLOUDY    81  77  89 SE9       30.01S HX  88
$$

IAZ047>049-059>061-072>074-084-260600-
   CENTRAL IOWA

CITY           SKY/WX    TMP DP  RH WIND       PRES   REMARKS
AMES           CLOUDY    77  74  90 SE6       30.02S
ANKENY *       CLOUDY    79  72  78 S5        30.04R HX  82
BOONE *        CLOUDY    77  73  88 S6        30.03R
CHARITON *     CLOUDY    77  70  78 S8        30.05R
DES MOINES     CLOUDY    80  73  79 SE8       30.02R HX  84
GRINNELL*      CLOUDY    73  68  83 SE5       30.07R
KNOXVILLE *    CLOUDY    77  68  73 S8        30.04R
MARSHALLTOWN   CLOUDY    75  70  84 S8        30.04R
NEWTON *       MOCLDY    75  68  78 S6        30.05S
PELLA *        MOCLDY    78  66  66 S6        30.05R
PERRY *          N/A     78  75  91 S5        30.03R HX  80
$$

IAZ004>006-015-016-023>025-035-036-260600-
   NORTH CENTRAL IOWA

CITY           SKY/WX    TMP DP  RH WIND       PRES   REMARKS
ALGONA *       CLOUDY    79  75  89 S7        30.02R HX  82
CLARION *      CLOUDY    77  73  88 S9        30.03R
ESTHERVILLE    CLOUDY    74  74 100 S5        30.01R
FORT DODGE *   CLOUDY    81  72  74 S8G16     30.03R HX  84
MASON CITY     CLOUDY    73  69  87 S7        30.04R
FOREST CITY *    N/A     73  72  94 S5        30.02S
WEBSTER CITY * CLOUDY    77  73  88 S7        30.01R
IOWA FALLS *     N/A     76  70  83 S7        30.06R
$$

IAZ007>011-017>019-026>030-037>042-050>054-066-260600-
   NORTHEAST IOWA

CITY           SKY/WX    TMP DP  RH WIND       PRES   REMARKS
CHARLES CITY * CLOUDY    73  72  94 S9        30.04R
DECORAH *      CLOUDY    73  68  83 S10G18    30.03R
DUBUQUE        CLOUDY    69  66  90 S8        30.08S
MONTICELLO *   CLOUDY    72  68  88 SE5       30.07R
OELWEIN *      MOCLDY    72  70  94 SE12      30.06R
$$

IAZ064-065-067-068-078-260600-
   EAST CENTRAL IOWA

CITY           SKY/WX    TMP DP  RH WIND       PRES   REMARKS
DAVENPORT      MOCLDY    72  67  84 SE7       30.09F
MT. PLEASANT * CLOUDY    72  69  90 SE8       30.06F
MUSCATINE *    PTCLDY    75  68  78 S6        30.07R
QUAD CITIES    MOCLDY    72  66  81 SE5       30.07S
$$

IAZ062-063-075>077-085>089-095>099-260600-
   SOUTHEAST IOWA

CITY           SKY/WX    TMP DP  RH WIND       PRES   REMARKS
BURLINGTON     PTCLDY    75  69  81 SE9       30.07F
FAIRFIELD *    CLOUDY    75  68  78 SE8       30.06R
FORT MADISON * PTCLDY    75  70  83 SE8       30.08S
KEOKUK *       CLOUDY    75  70  83 SE7       30.07S
OSKALOOSA *      N/A     73  67  82 SE7       30.05S
CENTERVILLE *    N/A     73  68  83 CALM      30.08R
OTTUMWA        CLOUDY    79  67  66 S9        30.05S HX  81
WASHINGTON *   CLOUDY    73  70  88 S7        30.07S
$$

ABBREVIATIONS USED IN REMARKS
   TC - TEMPERATURES IN CELSIUS
  WCI - WIND CHILL INDEX
   HX - HEAT INDEX
  VSB - VISIBILITY
$$




USA.gov is the U.S. government's official web portal to all federal, state and local government web resources and services.